Location: Unspecified
(0.0000°N, 0.0000°E)
Time: 05:05:28
(UTC+00:00)

Courier 1B Rocket - Pass Details

Date: 14 April 2021
Orbit: 920 x 1202 km, 28.3° (Epoch: 16 May)

Event Time Altitude Azimuth Distance (km) Brightness Sun altitude
Rises 19:12:23 0° 261° (W) 3,664 9.4 -17.8°
Reaches altitude 10° 19:15:15 10° 270° (W) 2,755 8.6 -18.5°
Maximum altitude 19:21:12 33° 333° (NNW) 1,663 6.5 -20.0°
Drops below altitude 10° 19:27:32 10° 35° (NE) 2,936 7.3 -21.5°
Enters shadow 19:28:30 - 39° (NE) 3,238 7.5 -21.8°
